Tracking 31027 objects as of 19-Jul-2025
HD Live streaming from Space Station
objects crossing your sky now

STARLINK-30380

Track STARLINK-30380 now!
10-day predictions
STARLINK-30380 is classified as:


NORAD ID: 57780
Int'l Code: 2023-134K
Perigee: 565.3 km
Apogee: 567.2 km
Inclination: 43.0 °
Period: 95.8 minutes
Semi major axis: 6937 km
RCS: Unknown
Launch date: September 4, 2023
Source: United States (US)
Launch site: AIR FORCE EASTERN TEST RANGE (AFETR)
Your satellite tracking list
FENGYUN 1C DEB
Track 1 satellite(s)




NASA's NSSDC Master Catalog

Two Line Element Set (TLE):
1 57780U 23134K   25199.55318465 -.00000155  00000-0  35948-5 0  9999
2 57780  43.0047  29.5107 0001384 250.1979 109.8714 15.02538230104251
Source of the keplerian elements: AFSPC